Terminal Aerodrome Forecast
Issued by NWS

Home | Current Version | Previous Version | Text Only | Print | Product List | Glossary Off
Versions: 1 2 3 4 5 6 7 8 9 10 11 12 13 14 15

069
FTUS43 KIWX 160351 AAA
TAFSBN
TAF AMD
KSBN 160351Z 1604/1624 23010KT 5SM BR OVC025
     FM161200 24006KT 1SM -SHSN BR OVC015
     FM161500 26007KT P6SM BKN015=

USA.gov is the U.S. government's official web portal to all federal, state and local government web resources and services.